Location: Newark
(48.1500°N, 2.9667°W)
Time: 17:21:45
(UTC+00:00)

Altair - Pass Details

Date: 03 February 2020
Orbit: 1502 x 1682 km, 47.2° (Epoch: 22 February)

Event Time Altitude Azimuth Distance (km) Brightness Sun altitude
Rises 04:02:05 0° 178° (S) 4,778 10.0 -36.0°
Reaches altitude 10° 04:06:43 10° 159° (SSE) 3,833 9.6 -35.3°
Maximum altitude 04:12:07 16° 124° (SE) 3,386 9.6 -34.4°
Drops below altitude 10° 04:17:37 10° 90° (E) 3,912 10.4 -33.5°
Sets 04:22:22 0° 72° (ENE) 4,925 11.2 -32.8°
